Погода в Дятлове

Россия / Тверская область     57°42′25″N   34°47′22″E
темп.,
°C
ветер,
м/с
пор.,
м/с
влажн.,
%
обл.,
%
осадки,
мм/ч
давл.,
гПа
погр.,
м
19 января, вт
вт1900:00−15юз119785 0.1 101920
03:00−15з119784 0.1 101920
06:00−16зюз119882 0.0 101820
09:00−16зюз119886 0.1 101820
12:00−13зюз129581 0.0 1018102
15:00−12зюз119683 0.1 101750
18:00−15зюз129742 0.0 101720
21:00−15зюз229757 0.0 101820
20 января, ср
ср2000:00−16зюз239762 0.0 101825
03:00−16зюз239766 0.0 101930
06:00−16зюз239767 0.0 101833
09:00−16зюз239741 0.0 101936
12:00−12зюз24944 0.0 1019172
15:00−11юз259530 0.0 1019203
18:00−14ююз23960 0.0 101946
21:00−16ю36942 0.0 1018103
21 января, чт
чт2100:00−15ю3890100 0.0 1016243
03:00−14ю41285100 0.0 1014370
06:00−11ю51294100 0.7 1010511
09:00−8ююз51294100 2.3 1008633
12:00−7ююз51292100 1.1 1006553
15:00−5юз51293100 1.4 1004489
18:00−2юз51294100 0.4 1003443
21:00+1юз51493100 0.9 1002575
22 января, пт
пт2200:00+1юз41296100 0.1 1002509
03:00+1зюз41195100 0.1 1003570
06:00+1юз31094100 0.0 1003553
09:000ююз2895100 0.0 1004287
12:00+1ююз4998100 0.0 1004517
15:00+1ююз2897100 0.0 1004409
18:000ююз4997100 0.0 1003438
21:00−2ю3995100 0.2 1003357
23 января, сб
сб2300:000ююз3995100 0.3 1003397
03:00+1ю3996100 0.3 1004384
06:00+1ю3898100 0.0 1003329
09:00+1ю41097100 0.3 1002367
12:00+2ю3899100 0.8 1002296
15:00+2ююз3999100 1.0 1002328
18:00+1ю3799100 0.4 1002212
21:00+1ю3899100 1.4 1001221